,,Stat6,,Stat2,,Stat8,,Stat9,,Stat10,,Wind1,,Wind1,
time,status,PA1M_AVG,status,PR1M_SUM,status,RH1M_AVG,status,SR1M_AVG,status,TA1M_AVG,status,W1dAve1m,status,W1sAve1m,
2003-10-17, 00:00:00,VALID,919.169,VALID,0,VALID,95.8777,VALID,-0.0169808,VALID,20.2131,VALID,5,VALID,0.937682,
2003-10-17, 00:01:00,VALID,919.164,VALID,0,VALID,95.8103,VALID,-0.0339617,VALID,20.2364,VALID,13,VALID,0.490327,
2003-10-17, 00:02:00,VALID,919.149,VALID,0,VALID,95.7111,VALID,-0.0339617,VALID,20.2128,VALID,10,VALID,0.645167,
2003-10-17, 00:03:00,VALID,919.126,VALID,0,VALID,95.7531,VALID,-0.0169808,VALID,20.2165,VALID,13,VALID,0.589757,
2003-10-17, 00:04:00,VALID,919.105,VALID,0,VALID,95.7925,VALID,-0.0339617,VALID,20.2133,VALID,9,VALID,0.578658,
2003-10-17, 00:05:00,VALID,919.087,VALID,0,VALID,95.9489,VALID,-0.0169808,VALID,20.2332,VALID,356,VALID,0.637195,
2003-10-17, 00:06:00,VALID,919.063,VALID,0,VALID,95.9833,VALID,0,VALID,20.2255,VALID,1,VALID,0.879416,
2003-10-17, 00:07:00,VALID,919.038,VALID,0,VALID,95.9756,VALID,-0.0169808,VALID,20.2749,VALID,5,VALID,0.722098,
2003-10-17, 00:08:00,VALID,919.003,VALID,0,VALID,95.9184,VALID,-0.0169808,VALID,20.2839,VALID,360,VALID,0.838663,
2003-10-17, 00:09:00,VALID,918.996,VALID,0,VALID,95.7696,VALID,0,VALID,20.3038,VALID,14,VALID,0.883185,
2003-10-17, 00:10:00,VALID,918.976,VALID,0,VALID,95.6425,VALID,0,VALID,20.2968,VALID,2,VALID,0.612326,
2003-10-17, 00:11:00,VALID,918.961,VALID,0,VALID,95.5878,VALID,-0.0169808,VALID,20.2876,VALID,357,VALID,0.74929,
2003-10-17, 00:12:00,VALID,918.949,VALID,0,VALID,95.6819,VALID,-0.0339617,VALID,20.2876,VALID,356,VALID,0.577925,
2003-10-17, 00:13:00,VALID,918.922,VALID,0,VALID,95.7099,VALID,-0.0169808,VALID,20.2873,VALID,337,VALID,0.576265,
2003-10-17, 00:14:00,VALID,918.888,VALID,0,VALID,95.809,VALID,-0.0509425,VALID,20.2873,VALID,333,VALID,0.40407,
2003-10-17, 00:15:00,VALID,918.861,VALID,0,VALID,95.7734,VALID,-0.0339617,VALID,20.3003,VALID,333,VALID,0.126272,
2003-10-17, 00:16:00,VALID,918.844,VALID,0,VALID,95.6272,VALID,-0.0339617,VALID,20.2846,VALID,327,VALID,0.353087,
2003-10-17, 00:17:00,VALID,918.812,VALID,0,VALID,95.7582,VALID,-0.0169808,VALID,20.2456,VALID,291,VALID,0.432664,
2003-10-17, 00:18:00,VALID,918.786,VALID,0,VALID,95.9413,VALID,-0.0339617,VALID,20.2198,VALID,326,VALID,0.476563,
2003-10-17, 00:19:00,VALID,918.766,VALID,0,VALID,96.0011,VALID,-0.0169808,VALID,20.2036,VALID,358,VALID,0.542014,
2003-10-17, 00:20:00,VALID,918.737,VALID,0,VALID,96.1041,VALID,-0.0169808,VALID,20.2001,VALID,1,VALID,0.834449,
2003-10-17, 00:21:00,VALID,918.743,VALID,0,VALID,96.1333,VALID,-0.0339617,VALID,20.1813,VALID,310,VALID,0.639898,
2003-10-17, 00:22:00,VALID,918.738,VALID,0,VALID,96.3279,VALID,-0.0339617,VALID,20.1646,VALID,287,VALID,0.341797,
2003-10-17, 00:23:00,VALID,918.739,VALID,0,VALID,96.352,VALID,-0.0339617,VALID,20.1581,VALID,287,VALID,0.0592607,
2003-10-17, 00:24:00,VALID,918.723,VALID,0,VALID,96.3724,VALID,-0.0339617,VALID,20.1395,VALID,287,VALID,0,
2003-10-17, 00:25:00,VALID,918.696,VALID,0,VALID,96.5224,VALID,-0.0339617,VALID,20.1393,VALID,344,VALID,0.700457,
2003-10-17, 00:26:00,VALID,918.701,VALID,0,VALID,96.5974,VALID,-0.0679233,VALID,20.1847,VALID,337,VALID,0.62642,
2003-10-17, 00:27:00,VALID,918.706,VALID,0,VALID,96.5924,VALID,-0.0169808,VALID,20.2235,VALID,348,VALID,0.412791,
2003-10-17, 00:28:00,VALID,918.702,VALID,0,VALID,96.2961,VALID,-0.0339617,VALID,20.2163,VALID,325,VALID,0.129002,
2003-10-17, 00:29:00,VALID,918.708,VALID,0,VALID,96.216,VALID,-0.0339617,VALID,20.2332,VALID,191,VALID,0.0973837,
2003-10-17, 00:30:00,VALID,918.708,VALID,0,VALID,96.1053,VALID,-0.0509425,VALID,20.227,VALID,191,VALID,0.0392401,
2003-10-17, 00:31:00,VALID,918.689,VALID,0,VALID,96.071,VALID,-0.0169808,VALID,20.2108,VALID,191,VALID,0.247024,
2003-10-17, 00:32:00,VALID,918.679,VALID,0,VALID,96.0977,VALID,0,VALID,20.2039,VALID,191,VALID,0.0152439,
2003-10-17, 00:33:00,VALID,918.666,VALID,0,VALID,96.0176,VALID,0,VALID,20.2071,VALID,191,VALID,0.0303199,
2003-10-17, 00:34:00,VALID,918.654,VALID,0,VALID,95.9794,VALID,-0.0679233,VALID,20.2176,VALID,285,VALID,0.297247,
2003-10-17, 00:35:00,VALID,918.645,VALID,0,VALID,95.893,VALID,-0.0339617,VALID,20.2001,VALID,293,VALID,0.442406,
2003-10-17, 00:36:00,VALID,918.635,VALID,0,VALID,95.7823,VALID,-0.0169808,VALID,20.2426,VALID,327,VALID,0.565696,
2003-10-17, 00:37:00,VALID,918.626,VALID,0,VALID,95.542,VALID,-0.0509425,VALID,20.2722,VALID,23,VALID,0.329427,
2003-10-17, 00:38:00,VALID,918.622,VALID,0,VALID,95.4466,VALID,-0.0169808,VALID,20.2811,VALID,23,VALID,0.0243459,
2003-10-17, 00:39:00,VALID,918.607,VALID,0,VALID,95.2877,VALID,-0.0169808,VALID,20.2846,VALID,23,VALID,0,
2003-10-17, 00:40:00,VALID,918.598,VALID,0,VALID,95.1427,VALID,-0.0169808,VALID,20.2715,VALID,23,VALID,0.167492,
2003-10-17, 00:41:00,VALID,918.586,VALID,0,VALID,95.0957,VALID,-0.0339617,VALID,20.2357,VALID,23,VALID,0.169695,
2003-10-17, 00:42:00,VALID,918.573,VALID,0,VALID,95.2127,VALID,-0.0339617,VALID,20.2233,VALID,23,VALID,0.139172,
2003-10-17, 00:43:00,VALID,918.549,VALID,0,VALID,95.2483,VALID,-0.0169808,VALID,20.2004,VALID,23,VALID,0.161701,
2003-10-17, 00:44:00,VALID,918.52,VALID,0,VALID,95.2991,VALID,-0.0339617,VALID,20.1646,VALID,23,VALID,0.0139898,
2003-10-17, 00:45:00,VALID,918.494,VALID,0,VALID,95.4085,VALID,0,VALID,20.1191,VALID,133,VALID,0.2371,
2003-10-17, 00:46:00,VALID,918.445,VALID,0,VALID,95.6717,VALID,0,VALID,20.1194,VALID,170,VALID,0,
2003-10-17, 00:47:00,VALID,918.423,VALID,0,VALID,95.7976,VALID,-0.0169808,VALID,20.1067,VALID,170,VALID,0,
2003-10-17, 00:48:00,VALID,918.379,VALID,0,VALID,95.8078,VALID,-0.0169808,VALID,20.0809,VALID,170,VALID,0,
2003-10-17, 00:49:00,VALID,918.352,VALID,0,VALID,95.8434,VALID,0,VALID,20.0647,VALID,170,VALID,0,
2003-10-17, 00:50:00,VALID,918.312,VALID,0,VALID,95.8065,VALID,-0.0339617,VALID,20.0486,VALID,170,VALID,0,
2003-10-17, 00:51:00,VALID,918.273,VALID,0,VALID,95.8726,VALID,-0.0339617,VALID,20.0068,VALID,170,VALID,0.0218023,
2003-10-17, 00:52:00,VALID,918.265,VALID,0,VALID,96.0519,VALID,0,VALID,19.971,VALID,93,VALID,0.368278,
2003-10-17, 00:53:00,VALID,918.238,VALID,0,VALID,96.1384,VALID,-0.0339617,VALID,19.9358,VALID,27,VALID,0.495094,
2003-10-17, 00:54:00,VALID,918.215,VALID,0,VALID,96.2096,VALID,0,VALID,19.9069,VALID,21,VALID,0.179142,
2003-10-17, 00:55:00,VALID,918.206,VALID,0,VALID,96.291,VALID,-0.0509425,VALID,19.8582,VALID,28,VALID,0.454942,
2003-10-17, 00:56:00,VALID,918.197,VALID,0,VALID,96.3965,VALID,-0.0169808,VALID,19.8222,VALID,43,VALID,0.672619,
2003-10-17, 00:57:00,VALID,918.19,VALID,0,VALID,96.7907,VALID,0,VALID,19.8058,VALID,49,VALID,0.777083,
2003-10-17, 00:58:00,VALID,918.2,VALID,0,VALID,97.0412,VALID,-0.0339617,VALID,19.8384,VALID,56,VALID,0.565104,
2003-10-17, 00:59:00,VALID,918.198,VALID,0,VALID,96.909,VALID,-0.0169808,VALID,19.8515,VALID,71,VALID,0.701126,
2003-10-17, 01:00:00,VALID,918.186,VALID,0,VALID,96.7933,VALID,-0.0509425,VALID,19.861,VALID,84,VALID,0.779797,
2003-10-17, 01:01:00,VALID,918.175,VALID,0,VALID,96.7399,VALID,-0.0339617,VALID,19.8714,VALID,88,VALID,0.832667,
2003-10-17, 01:02:00,VALID,918.148,VALID,0,VALID,96.7424,VALID,-0.0169808,VALID,19.8712,VALID,88,VALID,0.816134,
2003-10-17, 01:03:00,VALID,918.139,VALID,0,VALID,96.7856,VALID,-0.0169808,VALID,19.8612,VALID,78,VALID,0.658008,
2003-10-17, 01:04:00,VALID,918.12,VALID,0,VALID,96.8568,VALID,-0.0509425,VALID,19.8615,VALID,66,VALID,0.522529,
2003-10-17, 01:05:00,VALID,918.107,VALID,0,VALID,96.7704,VALID,0,VALID,19.8779,VALID,66,VALID,0.320494,
2003-10-17, 01:06:00,VALID,918.079,VALID,0,VALID,96.7297,VALID,-0.0339617,VALID,19.8575,VALID,46,VALID,0.592797,
2003-10-17, 01:07:00,VALID,918.063,VALID,0,VALID,96.6356,VALID,-0.0509425,VALID,19.8677,VALID,41,VALID,0.417614,
2003-10-17, 01:08:00,VALID,918.06,VALID,0,VALID,96.6407,VALID,0,VALID,19.8776,VALID,35,VALID,0.34003,
2003-10-17, 01:09:00,VALID,918.031,VALID,0,VALID,96.5885,VALID,-0.0169808,VALID,19.8739,VALID,21,VALID,0.525436,
2003-10-17, 01:10:00,VALID,918.015,VALID,0,VALID,96.5479,VALID,-0.0169808,VALID,19.8513,VALID,13,VALID,0.823611,
2003-10-17, 01:11:00,VALID,917.986,VALID,0,VALID,96.6191,VALID,-0.0169808,VALID,19.8354,VALID,11,VALID,0.954799,
2003-10-17, 01:12:00,VALID,917.971,VALID,0,VALID,96.736,VALID,-0.0509425,VALID,19.8294,VALID,10,VALID,0.838914,
2003-10-17, 01:13:00,VALID,917.95,VALID,0,VALID,96.8136,VALID,-0.0169808,VALID,19.7964,VALID,6,VALID,0.802401,
2003-10-17, 01:14:00,VALID,917.932,VALID,0,VALID,96.9827,VALID,-0.0169808,VALID,19.781,VALID,347,VALID,0.907965,
2003-10-17, 01:15:00,VALID,917.915,VALID,0,VALID,97.265,VALID,-0.0169808,VALID,19.771,VALID,11,VALID,0.914621,
2003-10-17, 01:16:00,VALID,917.897,VALID,0,VALID,97.3134,VALID,0,VALID,19.7576,VALID,2,VALID,1.02809,
2003-10-17, 01:17:00,VALID,917.875,VALID,0,VALID,97.2752,VALID,-0.0169808,VALID,19.7579,VALID,4,VALID,0.664931,
2003-10-17, 01:18:00,VALID,917.856,VALID,0,VALID,97.2409,VALID,-0.0339617,VALID,19.7584,VALID,343,VALID,0.62934,
2003-10-17, 01:19:00,VALID,917.853,VALID,0,VALID,97.2104,VALID,0,VALID,19.7576,VALID,324,VALID,0.581032,
2003-10-17, 01:20:00,VALID,917.847,VALID,0,VALID,97.2727,VALID,0,VALID,19.7643,VALID,297,VALID,0.397079,
2003-10-17, 01:21:00,VALID,917.831,VALID,0,VALID,97.3693,VALID,0,VALID,19.7546,VALID,297,VALID,0.239025,
2003-10-17, 01:22:00,VALID,917.818,VALID,0,VALID,97.4596,VALID,-0.0169808,VALID,19.7417,VALID,297,VALID,0.162791,
2003-10-17, 01:23:00,VALID,917.818,VALID,0,VALID,97.5651,VALID,0.0169808,VALID,19.742,VALID,297,VALID,0.234738,
2003-10-17, 01:24:00,VALID,917.797,VALID,0,VALID,97.6847,VALID,0,VALID,19.7385,VALID,297,VALID,0.102289,
2003-10-17, 01:25:00,VALID,917.779,VALID,0,VALID,97.7114,VALID,0.0169808,VALID,19.7517,VALID,311,VALID,0.233994,
2003-10-17, 01:26:00,VALID,917.761,VALID,0,VALID,97.733,VALID,-0.0169808,VALID,19.7519,VALID,303,VALID,0.0512576,
2003-10-17, 01:27:00,VALID,917.756,VALID,0,VALID,97.7203,VALID,0,VALID,19.7616,VALID,303,VALID,0.0658482,
2003-10-17, 01:28:00,VALID,917.744,VALID,0,VALID,97.6923,VALID,0,VALID,19.7415,VALID,303,VALID,0.227289,
2003-10-17, 01:29:00,VALID,917.741,VALID,0,VALID,97.6541,VALID,-0.0169808,VALID,19.7417,VALID,332,VALID,0.240885,
2003-10-17, 01:30:00,VALID,917.733,VALID,0,VALID,97.6084,VALID,0,VALID,19.7387,VALID,355,VALID,0.0677689,
2003-10-17, 01:31:00,VALID,917.745,VALID,0,VALID,97.5893,VALID,0,VALID,19.7489,VALID,355,VALID,0.167873,
2003-10-17, 01:32:00,VALID,917.74,VALID,0,VALID,97.4736,VALID,-0.0169808,VALID,19.736,VALID,355,VALID,0.0543241,
2003-10-17, 01:33:00,VALID,917.741,VALID,0,VALID,97.4227,VALID,-0.0509425,VALID,19.7266,VALID,355,VALID,0.0101744,
2003-10-17, 01:34:00,VALID,917.742,VALID,0,VALID,97.4583,VALID,0.0339617,VALID,19.7186,VALID,355,VALID,0,
2003-10-17, 01:35:00,VALID,917.735,VALID,0,VALID,97.2536,VALID,0.101885,VALID,19.705,VALID,355,VALID,0.131669,
2003-10-17, 01:36:00,VALID,917.749,VALID,0,VALID,97.0959,VALID,0.101885,VALID,19.6928,VALID,12,VALID,0.332667,
2003-10-17, 01:37:00,VALID,917.758,VALID,0,VALID,97.0323,VALID,0.0849042,VALID,19.6632,VALID,27,VALID,0.334635,
2003-10-17, 01:38:00,VALID,917.753,VALID,0,VALID,96.9611,VALID,0.0849042,VALID,19.6406,VALID,27,VALID,0.40407,
2003-10-17, 01:39:00,VALID,917.763,VALID,0,VALID,96.9764,VALID,0.0849042,VALID,19.6215,VALID,27,VALID,0.189648,
2003-10-17, 01:40:00,VALID,917.765,VALID,0,VALID,96.9103,VALID,0.0849042,VALID,19.5954,VALID,27,VALID,0.216406,
2003-10-17, 01:41:00,VALID,917.765,VALID,0,VALID,96.9662,VALID,0.0849042,VALID,19.5792,VALID,27,VALID,0,
2003-10-17, 01:42:00,VALID,917.772,VALID,0,VALID,97.0705,VALID,0.101885,VALID,19.5763,VALID,27,VALID,0,
2003-10-17, 01:43:00,VALID,917.774,VALID,0,VALID,97.1709,VALID,0.101885,VALID,19.5855,VALID,27,VALID,0,
2003-10-17, 01:44:00,VALID,917.774,VALID,0,VALID,97.1557,VALID,0.101885,VALID,19.5981,VALID,27,VALID,0.0276989,
2003-10-17, 01:45:00,VALID,917.785,VALID,0,VALID,97.1035,VALID,0.0849042,VALID,19.5984,VALID,27,VALID,0.241443,
2003-10-17, 01:46:00,VALID,917.795,VALID,0,VALID,97.1252,VALID,0.101885,VALID,19.6011,VALID,21,VALID,0.374414,
2003-10-17, 01:47:00,VALID,917.81,VALID,0,VALID,97.0489,VALID,0.101885,VALID,19.6175,VALID,20,VALID,0,
2003-10-17, 01:48:00,VALID,917.83,VALID,0,VALID,96.9306,VALID,0.101885,VALID,19.615,VALID,336,VALID,0.370206,
2003-10-17, 01:49:00,VALID,917.829,VALID,0,VALID,97.0527,VALID,-0.0169808,VALID,19.6259,VALID,263,VALID,0.434593,
2003-10-17, 01:50:00,VALID,917.81,VALID,0,VALID,97.0845,VALID,-0.0169808,VALID,19.6389,VALID,244,VALID,0.046875,
2003-10-17, 01:51:00,VALID,917.811,VALID,0,VALID,96.9268,VALID,-0.0169808,VALID,19.6322,VALID,345,VALID,0.419389,
2003-10-17, 01:52:00,VALID,917.798,VALID,0,VALID,96.7627,VALID,-0.0169808,VALID,19.6197,VALID,18,VALID,0.178906,
2003-10-17, 01:53:00,VALID,917.794,VALID,0,VALID,96.8683,VALID,-0.0169808,VALID,19.6105,VALID,14,VALID,0.163061,
2003-10-17, 01:54:00,VALID,917.778,VALID,0,VALID,97.0209,VALID,-0.0509425,VALID,19.623,VALID,13,VALID,0,
2003-10-17, 01:55:00,VALID,917.776,VALID,0,VALID,97.1188,VALID,-0.0169808,VALID,19.6264,VALID,13,VALID,0,
2003-10-17, 01:56:00,VALID,917.769,VALID,0,VALID,97.0349,VALID,-0.0339617,VALID,19.6262,VALID,13,VALID,0.0203125,
2003-10-17, 01:57:00,VALID,917.753,VALID,0,VALID,97.0501,VALID,-0.0339617,VALID,19.6133,VALID,13,VALID,0,
2003-10-17, 01:58:00,VALID,917.749,VALID,0,VALID,97.1099,VALID,-0.0509425,VALID,19.6165,VALID,13,VALID,0.0165334,
2003-10-17, 01:59:00,VALID,917.749,VALID,0,VALID,97.1252,VALID,-0.0169808,VALID,19.5939,VALID,2,VALID,0.385538,
2003-10-17, 02:00:00,VALID,917.744,VALID,0,VALID,97.2905,VALID,-0.0169808,VALID,19.5874,VALID,360,VALID,0.570482,
2003-10-17, 02:01:00,VALID,917.73,VALID,0,VALID,97.3833,VALID,0,VALID,19.5777,VALID,4,VALID,0.587798,
2003-10-17, 02:02:00,VALID,917.738,VALID,0,VALID,97.4075,VALID,-0.0509425,VALID,19.5609,VALID,336,VALID,0.543786,
2003-10-17, 02:03:00,VALID,917.739,VALID,0,VALID,97.5524,VALID,0,VALID,19.5611,VALID,336,VALID,0.240699,
2003-10-17, 02:04:00,VALID,917.751,VALID,0,VALID,97.6834,VALID,0,VALID,19.5735,VALID,336,VALID,0.212271,
2003-10-17, 02:05:00,VALID,917.762,VALID,0,VALID,97.7381,VALID,-0.0509425,VALID,19.5936,VALID,336,VALID,0.175409,
2003-10-17, 02:06:00,VALID,917.78,VALID,0,VALID,97.7927,VALID,-0.0339617,VALID,19.6167,VALID,344,VALID,0.219703,
2003-10-17, 02:07:00,VALID,917.784,VALID,0,VALID,97.691,VALID,-0.0509425,VALID,19.6262,VALID,346,VALID,0.158249,
2003-10-17, 02:08:00,VALID,917.809,VALID,0,VALID,97.6541,VALID,0,VALID,19.6292,VALID,346,VALID,0.0280107,
2003-10-17, 02:09:00,VALID,917.824,VALID,0,VALID,97.527,VALID,-0.0339617,VALID,19.6423,VALID,346,VALID,0,
2003-10-17, 02:10:00,VALID,917.839,VALID,0,VALID,97.2968,VALID,0,VALID,19.613,VALID,346,VALID,0.157138,
2003-10-17, 02:11:00,VALID,917.82,VALID,0,VALID,97.3693,VALID,0,VALID,19.6033,VALID,346,VALID,0,
2003-10-17, 02:12:00,VALID,917.827,VALID,0,VALID,97.2421,VALID,-0.0339617,VALID,19.5748,VALID,346,VALID,0,
2003-10-17, 02:13:00,VALID,917.821,VALID,0,VALID,97.251,VALID,-0.0339617,VALID,19.5454,VALID,18,VALID,0.0729167,
2003-10-17, 02:14:00,VALID,917.824,VALID,0,VALID,97.2231,VALID,-0.0339617,VALID,19.5263,VALID,118,VALID,0.0535714,
2003-10-17, 02:15:00,VALID,917.822,VALID,0,VALID,97.2777,VALID,-0.0339617,VALID,19.5035,VALID,118,VALID,0.144709,
2003-10-17, 02:16:00,VALID,917.831,VALID,0,VALID,97.3579,VALID,-0.0339617,VALID,19.5037,VALID,118,VALID,0.0797602,
2003-10-17, 02:17:00,VALID,917.835,VALID,0,VALID,97.3935,VALID,-0.0509425,VALID,19.4908,VALID,118,VALID,0.0697917,
2003-10-17, 02:18:00,VALID,917.829,VALID,0,VALID,97.3553,VALID,-0.0509425,VALID,19.4744,VALID,132,VALID,0.467348,
2003-10-17, 02:19:00,VALID,917.824,VALID,0,VALID,97.4443,VALID,0.0169808,VALID,19.4575,VALID,162,VALID,0.474254,
2003-10-17, 02:20:00,VALID,917.811,VALID,0,VALID,97.5346,VALID,0.0169808,VALID,19.4344,VALID,169,VALID,0.616616,
2003-10-17, 02:21:00,VALID,917.793,VALID,0,VALID,97.6618,VALID,0,VALID,19.4282,VALID,178,VALID,0.617708,
2003-10-17, 02:22:00,VALID,917.786,VALID,0,VALID,97.7406,VALID,0.0509425,VALID,19.4215,VALID,172,VALID,0.608041,
2003-10-17, 02:23:00,VALID,917.785,VALID,0,VALID,97.8334,VALID,0.0169808,VALID,19.4282,VALID,172,VALID,0.170277,
2003-10-17, 02:24:00,VALID,917.792,VALID,0,VALID,97.8792,VALID,0.0169808,VALID,19.4088,VALID,172,VALID,0.000726744,
2003-10-17, 02:25:00,VALID,917.79,VALID,0,VALID,97.8652,VALID,0,VALID,19.4093,VALID,170,VALID,0,
2003-10-17, 02:26:00,VALID,917.788,VALID,0,VALID,97.747,VALID,0,VALID,19.373,VALID,167,VALID,0,
2003-10-17, 02:27:00,VALID,917.797,VALID,0,VALID,97.8131,VALID,0.0169808,VALID,19.3502,VALID,167,VALID,0,
2003-10-17, 02:28:00,VALID,917.798,VALID,0,VALID,97.9441,VALID,0.0169808,VALID,19.3606,VALID,167,VALID,0,
2003-10-17, 02:29:00,VALID,917.8,VALID,0,VALID,98.0407,VALID,0,VALID,19.3504,VALID,167,VALID,0,
2003-10-17, 02:30:00,VALID,917.798,VALID,0,VALID,98.0293,VALID,0.0339617,VALID,19.3308,VALID,167,VALID,0,
2003-10-17, 02:31:00,VALID,917.795,VALID,0,VALID,98.07,VALID,0,VALID,19.3316,VALID,167,VALID,0.0221657,
2003-10-17, 02:32:00,VALID,917.782,VALID,0,VALID,98.2709,VALID,0,VALID,19.3447,VALID,167,VALID,0.317294,
2003-10-17, 02:33:00,VALID,917.777,VALID,0,VALID,98.351,VALID,0.0169808,VALID,19.3544,VALID,144,VALID,0.337652,
2003-10-17, 02:34:00,VALID,917.769,VALID,0,VALID,98.2989,VALID,0,VALID,19.3186,VALID,99,VALID,0.218205,
2003-10-17, 02:35:00,VALID,917.774,VALID,0,VALID,98.2378,VALID,0,VALID,19.2988,VALID,98,VALID,0.168241,
2003-10-17, 02:36:00,VALID,917.768,VALID,0,VALID,98.1641,VALID,0,VALID,19.2928,VALID,98,VALID,0.00607639,
2003-10-17, 02:37:00,VALID,917.758,VALID,0,VALID,98.2251,VALID,0.0169808,VALID,19.2896,VALID,98,VALID,0,
2003-10-17, 02:38:00,VALID,917.757,VALID,0,VALID,98.2658,VALID,0.0339617,VALID,19.2861,VALID,98,VALID,0,
2003-10-17, 02:39:00,VALID,917.748,VALID,0,VALID,98.2899,VALID,0.0169808,VALID,19.2868,VALID,98,VALID,0,
2003-10-17, 02:40:00,VALID,917.757,VALID,0,VALID,98.3154,VALID,0,VALID,19.2863,VALID,98,VALID,0,
2003-10-17, 02:41:00,VALID,917.755,VALID,0,VALID,98.398,VALID,0.0339617,VALID,19.3027,VALID,98,VALID,0,
2003-10-17, 02:42:00,VALID,917.761,VALID,0,VALID,98.4667,VALID,-0.0169808,VALID,19.3124,VALID,98,VALID,0,
2003-10-17, 02:43:00,VALID,917.756,VALID,0,VALID,98.482,VALID,0.0169808,VALID,19.3189,VALID,98,VALID,0.00763081,
2003-10-17, 02:44:00,VALID,917.758,VALID,0,VALID,98.4171,VALID,0,VALID,19.3258,VALID,98,VALID,0,
2003-10-17, 02:45:00,VALID,917.767,VALID,0,VALID,98.4565,VALID,0,VALID,19.3253,VALID,98,VALID,0,
2003-10-17, 02:46:00,VALID,917.769,VALID,0,VALID,98.4209,VALID,0.0169808,VALID,19.3224,VALID,98,VALID,0,
2003-10-17, 02:47:00,VALID,917.755,VALID,0,VALID,98.4756,VALID,0,VALID,19.3221,VALID,98,VALID,0,
2003-10-17, 02:48:00,VALID,917.748,VALID,0,VALID,98.4324,VALID,0,VALID,19.3189,VALID,98,VALID,0,
2003-10-17, 02:49:00,VALID,917.727,VALID,0,VALID,98.4553,VALID,0,VALID,19.3156,VALID,98,VALID,0,
2003-10-17, 02:50:00,VALID,917.722,VALID,0,VALID,98.5099,VALID,-0.0169808,VALID,19.3226,VALID,98,VALID,0,
2003-10-17, 02:51:00,VALID,917.718,VALID,0,VALID,98.5265,VALID,-0.0169808,VALID,19.3159,VALID,99,VALID,0,
2003-10-17, 02:52:00,VALID,917.71,VALID,0,VALID,98.5684,VALID,0,VALID,19.3159,VALID,98,VALID,0,
2003-10-17, 02:53:00,VALID,917.717,VALID,0,VALID,98.5799,VALID,-0.0339617,VALID,19.3258,VALID,99,VALID,0,
2003-10-17, 02:54:00,VALID,917.724,VALID,0,VALID,98.5277,VALID,-0.0169808,VALID,19.3159,VALID,99,VALID,0,
2003-10-17, 02:55:00,VALID,917.729,VALID,0,VALID,98.5583,VALID,0,VALID,19.3062,VALID,99,VALID,0,
2003-10-17, 02:56:00,VALID,917.723,VALID,0,VALID,98.6104,VALID,-0.0169808,VALID,19.3161,VALID,98,VALID,0,
2003-10-17, 02:57:00,VALID,917.706,VALID,0,VALID,98.6905,VALID,-0.0169808,VALID,19.3253,VALID,98,VALID,0,
2003-10-17, 02:58:00,VALID,917.7,VALID,0,VALID,98.7884,VALID,0,VALID,19.3415,VALID,99,VALID,0.0234375,
2003-10-17, 02:59:00,VALID,917.688,VALID,0,VALID,98.7668,VALID,-0.0169808,VALID,19.3706,VALID,98,VALID,0.0349702,
2003-10-17, 03:00:00,VALID,917.667,VALID,0,VALID,98.6218,VALID,0,VALID,19.3837,VALID,90,VALID,0.0877544,
2003-10-17, 03:01:00,VALID,917.656,VALID,0,VALID,98.5354,VALID,0.0169808,VALID,19.3964,VALID,80,VALID,0,
2003-10-17, 03:02:00,VALID,917.645,VALID,0,VALID,98.4591,VALID,0,VALID,19.4063,VALID,80,VALID,0,
2003-10-17, 03:03:00,VALID,917.652,VALID,0,VALID,98.4108,VALID,0,VALID,19.4098,VALID,80,VALID,0,
2003-10-17, 03:04:00,VALID,917.655,VALID,0,VALID,98.2963,VALID,-0.0849042,VALID,19.4073,VALID,80,VALID,0.144627,
2003-10-17, 03:05:00,VALID,917.655,VALID,0,VALID,98.3077,VALID,-0.101885,VALID,19.4113,VALID,80,VALID,0.0995164,
2003-10-17, 03:06:00,VALID,917.653,VALID,0,VALID,98.2251,VALID,-0.101885,VALID,19.3976,VALID,43,VALID,0.296148,
2003-10-17, 03:07:00,VALID,917.639,VALID,0,VALID,98.1526,VALID,-0.101885,VALID,19.3974,VALID,19,VALID,0.706143,
2003-10-17, 03:08:00,VALID,917.63,VALID,0,VALID,98.0471,VALID,-0.101885,VALID,19.411,VALID,16,VALID,0.828125,
2003-10-17, 03:09:00,VALID,917.613,VALID,0,VALID,97.9339,VALID,-0.101885,VALID,19.4495,VALID,16,VALID,0.529978,
2003-10-17, 03:10:00,VALID,917.603,VALID,0,VALID,97.6821,VALID,-0.101885,VALID,19.4781,VALID,17,VALID,0.756424,
2003-10-17, 03:11:00,VALID,917.597,VALID,0,VALID,97.5397,VALID,-0.101885,VALID,19.5174,VALID,18,VALID,0.665838,
2003-10-17, 03:12:00,VALID,917.586,VALID,0,VALID,97.41,VALID,-0.101885,VALID,19.5566,VALID,21,VALID,0.652148,
2003-10-17, 03:13:00,VALID,917.571,VALID,0,VALID,97.2167,VALID,-0.0849042,VALID,19.5623,VALID,29,VALID,0.658794,
2003-10-17, 03:14:00,VALID,917.559,VALID,0,VALID,96.9535,VALID,-0.101885,VALID,19.5596,VALID,26,VALID,0.324314,
2003-10-17, 03:15:00,VALID,917.542,VALID,0,VALID,96.792,VALID,-0.101885,VALID,19.54,VALID,4,VALID,0.422238,
2003-10-17, 03:16:00,VALID,917.518,VALID,0,VALID,96.6343,VALID,-0.101885,VALID,19.5238,VALID,343,VALID,0.539844,
2003-10-17, 03:17:00,VALID,917.49,VALID,0,VALID,96.5529,VALID,-0.101885,VALID,19.5273,VALID,1,VALID,0.839935,
2003-10-17, 03:18:00,VALID,917.483,VALID,0,VALID,96.4372,VALID,-0.101885,VALID,19.5308,VALID,10,VALID,1.01762,
2003-10-17, 03:19:00,VALID,917.481,VALID,0,VALID,96.5415,VALID,0,VALID,19.5579,VALID,11,VALID,0.576791,
2003-10-17, 03:20:00,VALID,917.471,VALID,0,VALID,96.5542,VALID,0.0339617,VALID,19.5636,VALID,358,VALID,0.47745,
2003-10-17, 03:21:00,VALID,917.457,VALID,0,VALID,96.1956,VALID,0.0169808,VALID,19.5382,VALID,313,VALID,0.728795,
2003-10-17, 03:22:00,VALID,917.448,VALID,0,VALID,95.9235,VALID,0.0169808,VALID,19.5479,VALID,269,VALID,0.189024,
2003-10-17, 03:23:00,VALID,917.433,VALID,0,VALID,96.0519,VALID,0.0339617,VALID,19.5636,VALID,269,VALID,0.0615699,
2003-10-17, 03:24:00,VALID,917.438,VALID,0,VALID,95.9591,VALID,0.0339617,VALID,19.5837,VALID,337,VALID,0.478472,
2003-10-17, 03:25:00,VALID,917.435,VALID,0,VALID,95.879,VALID,0.0169808,VALID,19.5837,VALID,19,VALID,0.761719,
2003-10-17, 03:26:00,VALID,917.44,VALID,0,VALID,95.8726,VALID,0.0339617,VALID,19.5606,VALID,18,VALID,0.373958,
2003-10-17, 03:27:00,VALID,917.447,VALID,0,VALID,95.9667,VALID,0,VALID,19.5646,VALID,4,VALID,0.359766,
2003-10-17, 03:28:00,VALID,917.454,VALID,0,VALID,95.9057,VALID,0.0169808,VALID,19.5253,VALID,302,VALID,0.350347,
2003-10-17, 03:29:00,VALID,917.459,VALID,0,VALID,95.734,VALID,0.0509425,VALID,19.532,VALID,299,VALID,0.614955,
2003-10-17, 03:30:00,VALID,917.437,VALID,0,VALID,95.659,VALID,0.0339617,VALID,19.5318,VALID,346,VALID,0.555051,
2003-10-17, 03:31:00,VALID,917.416,VALID,0,VALID,95.8421,VALID,0.0509425,VALID,19.5378,VALID,17,VALID,0.822574,
2003-10-17, 03:32:00,VALID,917.421,VALID,0,VALID,95.8904,VALID,0.0339617,VALID,19.5253,VALID,12,VALID,1.35556,
2003-10-17, 03:33:00,VALID,917.429,VALID,0,VALID,95.8739,VALID,0.0509425,VALID,19.5022,VALID,2,VALID,0.93314,
2003-10-17, 03:34:00,VALID,917.425,VALID,0,VALID,95.8421,VALID,0,VALID,19.4808,VALID,340,VALID,0.562128,
2003-10-17, 03:35:00,VALID,917.422,VALID,0,VALID,96.0596,VALID,0.0339617,VALID,19.4476,VALID,320,VALID,0.370793,
2003-10-17, 03:36:00,VALID,917.414,VALID,0,VALID,96.1854,VALID,0.0169808,VALID,19.454,VALID,313,VALID,0.00408381,
2003-10-17, 03:37:00,VALID,917.415,VALID,0,VALID,96.3431,VALID,0.0509425,VALID,19.461,VALID,4,VALID,0.294779,